OH6LSL Weather Reports


time (UTC)temp
C
wind
direction
speed
KPH
gust
KPH
rain 1hr
cm
rain 24hr
cm
rain mn
cm
humidity
%
barometer
mb
20260506154456 7 233 3.2 19.3 0.00 0.00 0.00 46 1008.5
20260506153445 7 236 4.8 12.9 0.00 0.00 0.00 46 1008.5
20260506152445 7 244 3.2 9.7 0.00 0.00 0.00 47 1008.5
20260506151447 7 212 6.4 12.9 0.00 0.00 0.00 46 1008.5
20260506150436 7 213 6.4 17.7 0.00 0.00 0.00 44 1008.5
20260506145436 7 271 3.2 12.9 0.00 0.00 0.00 47 1008.4
20260506144443 7 215 3.2 11.3 0.00 0.00 0.00 45 1008.3
20260506143434 7 274 4.8 11.3 0.00 0.00 0.00 47 1008.3
20260506142454 7 192 1.6 12.9 0.00 0.00 0.00 46 1008.4
20260506141441 8 213 4.8 9.7 0.00 0.00 0.00 45 1008.3
20260506140454 8 202 3.2 11.3 0.00 0.00 0.00 43 1008.3
20260506135433 8 184 4.8 17.7 0.00 0.00 0.00 43 1008.2
20260506134435 8 86 6.4 11.3 0.00 0.00 0.00 41 1008.2
20260506133443 8 186 0.0 11.3 0.00 0.00 0.00 44 1008.2
20260506132506 8 152 4.8 9.7 0.00 0.00 0.00 43 1008.1
20260506131446 8 236 4.8 9.7 0.00 0.00 0.00 42 1008.0
20260506130440 8 172 1.6 11.3 0.00 0.00 0.00 43 1008.0
20260506125449 7 219 1.6 11.3 0.00 0.00 0.00 44 1008.0
20260506124433 7 134 4.8 16.1 0.00 0.00 0.00 45 1007.9
20260506123443 7 38 0.0 12.9 0.00 0.00 0.00 46 1007.9
20260506122445 7 144 3.2 11.3 0.00 0.00 0.00 46 1007.9
20260506121446 7 203 4.8 9.7 0.00 0.00 0.00 45 1007.8
20260506120436 7 246 0.0 11.3 0.00 0.00 0.00 49 1007.8
20260506115437 7 205 1.6 19.3 0.00 0.00 0.00 50 1007.6
20260506114458 7 274 1.6 16.1 0.00 0.00 0.00 49 1007.5
20260506113448 7 179 4.8 12.9 0.00 0.00 0.00 48 1007.5
20260506112448 7 219 0.0 11.3 0.00 0.00 0.00 49 1007.4
20260506111510 7 230 1.6 8.0 0.00 0.00 0.00 50 1007.3
20260506110439 6 178 1.6 16.1 0.00 0.00 0.00 50 1007.3
20260506105440 6 216 1.6 11.3 0.00 0.00 0.00 49 1007.1
20260506104444 7 219 0.0 9.7 0.00 0.00 0.00 49 1006.9
20260506103447 7 244 1.6 9.7 0.00 0.00 0.00 47 1006.9
20260506102449 7 270 1.6 16.1 0.00 0.00 0.00 48 1006.8
20260506101447 6 233 3.2 9.7 0.00 0.00 0.00 48 1006.6
20260506100437 6 329 0.0 6.4 0.00 0.00 0.00 49 1006.6
20260506095456 6 210 0.0 16.1 0.00 0.00 0.00 50 1006.4
20260506094437 6 209 0.0 12.9 0.00 0.00 0.00 53 1006.2
20260506093448 5 230 3.2 11.3 0.00 0.00 0.00 53 1006.2
20260506092510 5 184 1.6 11.3 0.00 0.00 0.00 54 1006.0
20260506091431 5 175 1.6 9.7 0.00 0.00 0.00 54 1005.9
20260506090503 5 144 0.0 17.7 0.00 0.00 0.00 55 1005.9
20260506085442 5 219 3.2 9.7 0.00 0.00 0.00 53 1005.8
20260506084443 6 260 0.0 8.0 0.00 0.00 0.00 52 1005.6
20260506083434 6 240 3.2 9.7 0.00 0.00 0.00 51 1005.6
20260506082433 7 206 0.0 11.3 0.00 0.00 0.00 47 1005.4
20260506081435 7 200 1.6 16.1 0.00 0.00 0.00 49 1005.2
20260506080446 7 257 0.0 9.7 0.00 0.00 0.00 45 1005.2
20260506073442 6 234 0.0 11.3 0.00 0.00 0.00 49 1004.9
20260506072501 6 188 1.6 11.3 0.00 0.00 0.00 51 1004.6
20260506071443 6 232 4.8 16.1 0.00 0.00 0.00 50 1004.5
20260506070451 5 246 1.6 16.1 0.00 0.00 0.00 51 1004.5
20260506062438 5 200 0.0 8.0 0.00 0.00 0.00 52 1003.9
20260506061440 5 254 1.6 11.3 0.00 0.00 0.00 53 1003.7
20260506060450 5 272 0.0 3.2 0.00 0.00 0.00 55 1003.7
20260506050440 3 217 1.6 8.0 0.00 0.00 0.00 56 1002.9
20260506044442 3 240 1.6 16.1 0.00 0.00 0.00 58 1002.8
20260506043451 3 200 4.8 9.7 0.00 0.00 0.00 57 1002.8
20260506042432 3 253 0.0 8.0 0.00 0.00 0.00 58 1002.7
20260506041436 3 256 3.2 9.7 0.00 0.00 0.00 59 1002.5
20260506040446 3 243 0.0 11.3 0.00 0.00 0.00 59 1002.5
20260506035446 3 239 0.0 8.0 0.00 0.00 0.00 59 1002.3
20260506034434 3 223 0.0 9.7 0.00 0.00 0.00 59 1002.3
20260506033444 3 220 1.6 12.9 0.00 0.00 0.00 59 1002.3
20260506032445 2 241 4.8 16.1 0.00 0.00 0.00 59 1002.2
20260506031450 2 181 0.0 11.3 0.00 0.00 0.00 60 1002.0
20260506030441 2 251 1.6 12.9 0.00 0.00 0.00 59 1002.0
20260506025442 2 243 1.6 8.0 0.00 0.00 0.00 61 1001.9
20260506024459 2 223 4.8 9.7 0.00 0.00 0.00 61 1001.8
20260506023449 2 232 3.2 12.9 0.00 0.00 0.00 62 1001.8
20260506022451 2 198 0.0 8.0 0.00 0.00 0.00 62 1001.8
20260506021434 2 263 3.2 9.7 0.00 0.00 0.00 61 1001.7
20260506020444 2 227 3.2 11.3 0.00 0.00 0.00 61 1001.7
20260506015446 2 239 3.2 12.9 0.00 0.00 0.00 60 1001.6
20260506014445 2 216 0.0 9.7 0.00 0.00 0.00 61 1001.4
20260506013437 2 220 1.6 12.9 0.00 0.00 0.00 60 1001.4
20260506012442 2 199 3.2 9.7 0.00 0.00 0.00 60 1001.2
20260506011443 2 246 4.8 11.3 0.00 0.00 0.00 60 1001.1
20260506010434 2 224 1.6 11.3 0.00 0.00 0.00 60 1001.1
20260506005436 2 254 3.2 12.9 0.00 0.00 0.00 60 1001.0
20260506004455 2 265 3.2 11.3 0.00 0.00 0.00 60 1000.9
20260506003508 2 219 3.2 19.3 0.00 0.00 0.00 60 1000.9
20260506002449 2 212 1.6 11.3 0.00 0.00 0.00 60 1000.8
20260506001434 2 196 0.0 16.1 0.00 0.00 0.00 59 1000.7
20260506000445 2 244 0.0 20.9 0.00 0.00 0.00 60 1000.7
20260505235444 3 268 0.0 11.3 0.00 0.00 0.00 59 1000.6
20260505234445 2 237 0.0 8.0 0.00 0.00 0.00 59 1000.5
20260505233434 3 236 1.6 14.5 0.00 0.00 0.00 58 1000.5
20260505232438 2 240 1.6 4.8 0.00 0.00 0.00 58 1000.4
20260505231440 3 250 0.0 9.7 0.00 0.00 0.00 58 1000.4
20260505230448 3 222 0.0 8.0 0.00 0.00 0.00 55 1000.4
20260505225451 3 243 4.8 11.3 0.00 0.00 0.00 53 1000.4
20260505224431 3 237 3.2 11.3 0.00 0.00 0.00 53 1000.3
20260505223444 3 236 0.0 8.0 0.00 0.00 0.00 53 1000.3
20260505222448 3 222 3.2 11.3 0.00 0.00 0.00 54 1000.3
20260505221449 3 241 0.0 12.9 0.00 0.00 0.00 55 1000.3
20260505220441 3 160 0.0 11.3 0.00 0.00 0.00 56 1000.3
20260505215440 3 243 0.0 9.7 0.00 0.00 0.00 57 1000.2
20260505214436 2 237 0.0 3.2 0.00 0.00 0.00 58 1000.2
20260505213446 2 237 4.8 11.3 0.00 0.00 0.00 59 1000.2
20260505212432 2 234 0.0 0.0 0.00 0.00 0.00 60 1000.0
20260505211432 2 234 0.0 0.0 0.00 0.00 0.00 60 999.9
20260505210442 2 234 0.0 1.6 0.00 0.00 0.00 60 999.9
20260505205442 2 227 0.0 3.2 0.00 0.00 0.00 62 999.9
20260505204445 2 227 0.0 0.0 0.00 0.00 0.00 63 999.8
20260505203438 2 227 0.0 0.0 0.00 0.00 0.00 64 999.8
20260505202441 2 227 0.0 0.0 0.00 0.00 0.00 63 999.7
20260505201440 2 227 0.0 1.6 0.00 0.00 0.00 62 999.7
20260505200448 3 227 0.0 0.0 0.00 0.00 0.00 59 999.7
20260505195451 3 227 0.0 0.0 0.00 0.00 0.00 57 999.7
20260505194432 3 227 0.0 0.0 0.00 0.00 0.00 56 999.6
20260505193445 3 227 0.0 0.0 0.00 0.00 0.00 54 999.6
20260505192448 4 227 0.0 0.0 0.00 0.00 0.00 52 999.6
20260505191508 5 229 0.0 0.0 0.00 0.00 0.00 51 999.5
20260505190439 5 229 0.0 4.8 0.00 0.00 0.00 49 999.5
20260505185440 5 261 1.6 6.4 0.00 0.00 0.00 48 999.3
20260505184441 5 208 0.0 8.0 0.00 0.00 0.00 47 999.2
20260505183431 5 200 4.8 12.9 0.00 0.00 0.00 44 999.2
20260505182455 6 233 0.0 4.8 0.00 0.00 0.00 45 999.0
20260505181435 6 205 0.0 8.0 0.00 0.00 0.00 43 998.9
20260505180442 6 202 0.0 6.4 0.00 0.00 0.00 43 998.9
20260505175445 6 210 0.0 6.4 0.00 0.00 0.00 40 998.8
20260505174446 7 215 1.6 6.4 0.00 0.00 0.00 39 998.6
20260505173439 7 280 0.0 3.2 0.00 0.00 0.00 42 998.6
20260505172439 7 213 3.2 9.7 0.00 0.00 0.00 39 998.6
20260505171500 6 152 0.0 8.0 0.00 0.00 0.00 44 998.6
20260505170452 6 244 1.6 9.7 0.00 0.00 0.00 45 998.6
20260505165451 6 244 0.0 8.0 0.00 0.00 0.00 44 998.5
20260505164450 7 222 0.0 4.8 0.00 0.00 0.00 45 998.5
20260505163440 7 171 1.6 8.0 0.00 0.00 0.00 42 998.5
20260505162502 7 254 0.0 0.0 0.00 0.00 0.00 45 998.5
20260505161442 7 254 1.6 8.0 0.00 0.00 0.00 46 998.4
20260505160433 7 222 0.0 11.3 0.00 0.00 0.00 47 998.4